Overview Statistics Trail Chart Weather Telemetry Raw packets
 

This is the latest recevied weather packets stored in our database for station/object NK7E-2. If no packets are shown the sender has not sent any weather packets the latest 10 day(s).

<< 26 27 28 29 30 31 32 >>
Time Temp. Humidity Pressure Rain* Wind** Luminosity Snow
1788054017 32.78° C 33% 1025.5 hPa 0 mm - - -
1788053417 32.78° C 35% 1025.4 hPa 0 mm - - -
1788052817 32.78° C 32% 1025.5 hPa 0 mm - - -
1788052217 32.22° C 33% 1025.6 hPa 0 mm - - -
1788051617 32.22° C 34% 1026 hPa 0 mm - - -
1788051016 32.22° C 35% 1026.2 hPa 0 mm - - -
1788050416 32.22° C 35% 1026 hPa 0 mm - - -
1788049817 31.67° C 35% 1025.8 hPa 0 mm - - -
1788049216 31.67° C 35% 1025.6 hPa 0 mm - - -
1788048616 31.67° C 36% 1025.9 hPa 0 mm - - -
1788048016 31.11° C 36% 1025.8 hPa 0 mm - - -
1788047427 31.11° C 42% 1025.7 hPa 0 mm - - -
1788046816 32.22° C 35% 1025.8 hPa 0 mm - - -
1788046216 35° C 29% 1026 hPa 0 mm - - -
1788045616 35° C 28% 1026.1 hPa 0 mm - - -
1788045016 34.44° C 30% 1025.8 hPa 0 mm - - -
1788044416 35.56° C 29% 1026.1 hPa 0 mm - - -
1788043816 35.56° C 30% 1025.7 hPa 0 mm - - -
1788043216 36.11° C 28% 1026 hPa 0 mm - - -
1788042616 37.22° C 25% 1026.7 hPa 0 mm - - -
1788042016 37.22° C 25% 1026.7 hPa 0 mm - - -
1788041416 37.22° C 22% 1026.9 hPa 0 mm - - -
1788040816 37.78° C 22% 1026.8 hPa 0 mm - - -
1788040216 38.33° C 22% 1027 hPa 0 mm - - -
1788039616 38.89° C 21% 1027.4 hPa 0 mm - - -

* Rain latest hour (hover to see other rain measurements)
** Current wind speed in m/s (hover to see current wind gust speed)